Probability
0 0 0 0 0 0 0 0 0 1 2 2 1 0 0 0 0 0 0 0 0 0 0 0 0 0 0 0 0 0 0 0 0 0 0 0 0 0 0 0 0 0 0
0 0 0 0 0 0 0 0 0 1 2 2 1 0 0 0 0 0 0 0 0 0 0 0 0 0 0 0 0 0 0 0 0 0 0 0 0 0 0 0 0 0 0
0 0 0 0 0 0 0 0 0 0 1 2 2 1 1 0 0 0 0 0 0 0 0 0 0 0 0 0 0 0 0 0 0 0 0 0 0 0 0 0 0 0 0
0 0 0 0 0 0 0 0 0 0 0 1 2 2 1 0 0 0 0 0 0 0 0 0 0 0 0 0 0 0 0 0 0 0 0 0 0 0 0 0 0 0 0
0 0 0 0 0 0 0 0 0 0 0 0 1 1 1 0 0 0 0 0 0 0 0 0 0 0 0 0 0 0 0 0 0 0 0 0 0 0 0 0 0 0 0
0 0 0 0 0 0 0 0 0 0 0 0 0 0 0 0 0 0 0 0 0 0 0 0 0 0 0 0 0 0 0 0 0 0 0 0 0 0 0 0 0 0 0
0 0 0 0 0 0 0 0 0 0 0 0 0 0 0 0 0 0 0 0 0 0 0 0 0 0 0 0 0 0 0 0 0 0 0 0 0 0 0 0 0 0 0
0 0 0 0 0 0 0 0 0 0 0 0 0 0 0 0 0 0 0 0 0 0 0 0 0 0 0 0 0 0 0 0 0 0 0 0 0 0 0 0 0 0 0
0 0 0 0 0 0 0 0 0 0 0 0 0 0 0 0 0 0 0 0 0 0 0 0 0 0 0 0 0 0 0 0 0 0 0 0 0 0 0 0 0 0 0
0 0 0 0 0 0 0 0 0 0 0 0 0 0 0 0 0 0 0 0 0 0 0 0 0 0 0 0 0 0 0 0 0 0 0 0 0 0 0 0 0 0 0
0 0 0 0 0 0 0 0 0 0 0 0 0 0 0 0 0 0 0 0 0 0 0 0 0 0 0 0 0 0 0 0 0 0 0 0 0 0 0 0 0 0 0
0 0 0 0 0 0 0 0 0 0 0 0 0 0 0 0 0 0 0 0 0 0 0 0 0 0 0 0 0 0 0 0 0 0 0 0 0 0 0 0 0 0 0
0 0 0 0 0 0 0 0 0 0 0 0 0 0 0 0 0 0 0 0 0 0 0 0 0 0 0 0 0 0 0 0 0 0 0 0 0 0 0 0 0 0 0
0 0 0 0 0 0 0 0 0 0 0 0 0 0 0 0 0 0 0 0 0 0 0 0 0 0 0 0 0 0 0 0 0 0 0 0 0 0 0 0 0 0 0
0 0 0 0 0 0 0 0 0 0 0 0 0 0 0 0 0 0 0 0 0 0 0 0 0 0 0 0 0 0 0 0 0 0 0 0 0 0 0 0 0 0 0
0 0 0 0 0 0 0 0 0 0 0 0 0 0 0 0 0 0 0 0 0 0 0 0 0 0 0 0 0 0 0 0 0 0 0 0 0 0 0 0 0 0 0
0 0 0 0 0 0 0 0 0 0 0 0 0 0 0 0 0 0 0 0 0 0 0 0 0 0 0 0 0 0 0 0 0 0 0 0 0 0 0 0 0 0 0
0 0 0 0 0 0 0 0 0 0 0 0 0 0 0 0 0 0 0 0 0 0 0 0 0 0 0 0 0 0 0 0 0 0 0 0 0 0 0 0 0 0 0
0 0 0 0 0 0 0 0 0 0 0 0 0 0 0 0 0 0 0 0 0 0 0 0 0 0 0 0 0 0 0 0 0 0 0 0 0 0 0 0 0 0 0
0 0 0 0 0 0 0 0 0 0 0 0 0 0 0 0 0 0 0 0 0 0 0 0 0 0 0 0 0 0 0 0 0 0 0 0 0 0 0 0 0 0 0
0 0 0 0 0 0 0 0 0 0 0 0 0 0 0 0 0 0 0 0 0 0 0 0 0 0 0 0 0 0 0 0 0 0 0 0 0 0 0 0 0 0 0
0 0 0 0 0 0 0 0 0 0 0 0 0 0 0 0 0 0 0 0 0 0 0 0 0 0 0 0 0 0 0 0 0 0 0 0 0 0 0 0 0 0 0
0 0 0 0 0 0 0 0 0 0 0 0 0 0 0 0 0 0 0 0 0 0 0 0 0 0 0 0 0 0 0 0 0 0 0 0 0 0 0 0 0 0 0
0 0 0 0 0 0 0 0 0 0 0 0 0 0 0 0 0 0 0 0 0 0 0 0 0 0 0 0 0 0 0 0 0 0 0 0 0 0 0 0 0 0 0
0 0 0 0 0 0 0 0 0 0 0 0 0 0 0 0 0 0 0 0 0 0 0 0 0 0 0 0 0 0 0 0 0 0 0 0 0 0 0 0 0 0 0
0 0 0 0 0 0 0 0 0 0 0 0 0 0 0 0 0 0 0 0 0 0 0 0 0 0 0 0 0 0 0 0 0 0 0 0 0 0 0 0 0 0 0
Wind_Speed
2 3 4 4 5 4 4 4 3 3 2 1 1 1 2 2 2 3 4 4 4 4 3 3 3 3 2 3 3 2 2 2 2 2 3 2 1 1 1 1 2 3 3
3 4 4 5 5 5 5 4 3 3 2 1 1 0 1 1 1 2 3 4 4 4 3 3 3 3 2 3 3 3 1 2 2 1 2 3 3 2 2 1 1 2 3
1 3 4 4 4 5 5 4 4 4 3 2 2 2 1 1 2 3 3 4 4 4 4 3 3 3 2 2 2 2 2 2 1 1 1 1 3 4 2 1 1 2 2
1 2 3 4 4 4 4 4 5 4 4 3 2 1 1 1 1 2 2 3 3 3 3 4 3 3 2 2 2 2 2 1 2 2 1 1 1 2 4 2 1 2 3
1 1 2 2 3 3 3 4 4 5 5 4 3 1 1 1 1 2 3 3 3 3 4 4 3 3 3 3 3 2 2 1 1 1 2 2 2 1 3 5 4 3 2
1 1 2 3 3 4 4 4 4 5 5 5 5 3 2 1 2 3 3 3 3 3 4 4 3 3 3 3 3 2 2 1 1 1 1 1 1 2 2 4 5 5 3
0 2 3 4 4 5 5 4 4 4 5 5 4 4 3 2 2 2 2 3 2 3 4 4 4 3 3 3 3 3 3 2 2 2 2 2 2 2 2 4 5 5 4
1 2 2 2 3 4 5 5 4 4 5 4 4 3 3 2 1 2 1 2 2 2 3 3 4 4 4 4 3 2 3 3 2 2 2 2 2 2 2 3 4 5 4
1 2 1 2 2 3 4 4 4 4 5 4 4 3 3 2 2 2 1 1 2 3 3 3 3 4 4 4 4 3 3 3 3 2 2 2 2 2 2 3 3 4 6
1 1 1 1 2 2 2 3 3 3 4 4 3 3 3 3 3 2 3 2 3 3 3 3 4 4 4 4 4 4 4 4 4 3 3 3 3 2 2 2 3 3 5
2 2 1 1 1 2 2 2 2 3 3 3 3 3 3 3 3 3 3 3 3 3 3 3 4 4 4 4 4 4 4 4 4 4 4 4 4 3 3 3 3 3 4
2 1 1 1 1 2 2 2 2 3 3 3 3 3 3 3 3 3 3 3 3 3 3 3 4 4 4 4 4 4 4 4 5 5 4 5 4 4 3 3 4 4 4
2 1 1 1 2 2 2 2 2 2 3 2 3 3 3 3 3 3 3 3 3 3 3 3 4 4 4 4 4 4 4 4 4 4 4 5 5 5 4 4 4 4 5
2 2 2 2 2 2 2 2 2 2 2 2 2 3 3 3 3 3 3 3 3 3 4 4 3 4 4 4 4 4 5 4 4 5 5 5 5 5 5 5 5 5 5
2 2 2 2 2 2 2 2 2 2 2 2 2 3 3 3 3 3 3 4 4 4 4 4 4 4 4 4 5 4 4 4 4 5 5 5 7 8 7 6 5 5 5
4 3 3 2 2 2 2 2 2 2 2 1 2 2 2 2 3 3 3 3 4 4 4 4 4 4 4 7 8 6 3 4 4 5 5 5 5 8 10 10 10 9 7
4 4 4 3 3 2 2 2 2 1 1 1 2 2 2 2 3 3 3 3 3 3 4 4 4 4 6 8 8 9 5 4 4 4 5 5 5 6 6 8 10 9 10
5 4 3 3 2 2 1 1 1 1 1 1 2 2 2 2 3 3 3 3 3 3 3 4 4 4 5 8 9 9 5 3 4 4 5 5 6 7 8 6 7 7 7
5 4 3 3 2 1 1 0 0 1 1 2 2 2 2 2 2 2 3 2 2 3 3 3 3 4 6 8 9 9 3 3 4 4 4 5 6 10 12 8 7 8 7
3 2 2 1 1 1 1 1 1 1 2 3 2 2 1 1 2 2 2 2 2 2 3 3 3 4 5 8 9 9 3 4 4 4 5 6 9 12 12 7 6 8 8
2 2 2 2 2 1 1 1 1 2 3 2 2 1 1 1 1 1 1 2 2 2 2 3 4 4 4 7 9 9 4 4 4 4 4 5 12 13 13 10 6 9 10
2 2 2 2 1 1 2 2 3 3 1 1 1 1 1 1 1 1 1 1 1 2 2 3 4 3 3 5 7 9 7 7 4 4 4 6 12 13 13 10 10 13 10
3 3 3 2 1 1 2 3 3 1 0 0 1 1 1 1 1 1 1 1 1 1 2 2 3 4 3 4 7 8 9 9 5 4 7 10 12 11 9 11 12 9 5
3 3 3 3 3 2 2 3 1 0 1 1 1 1 1 1 1 1 1 1 1 1 2 2 3 3 3 3 3 3 4 5 5 4 6 9 10 8 8 7 7 5 4
3 3 4 4 4 2 3 2 1 1 1 1 1 1 1 1 1 1 1 2 2 2 3 2 2 3 4 5 7 5 3 3 3 3 3 3 4 5 5 5 4 4 5
3 3 4 4 4 3 3 2 2 2 2 2 1 1 1 1 1 1 2 3 4 5 6 5 4 4 6 8 8 8 8 8 7 4 3 4 4 4 5 5 6 5 5
Wind_Direction
27 29 29 27 26 23 25 25 27 22 30 27 25 19 9 8 13 14 16 13 8 5 9 4 2 2 359 350 342 329 339 350 347 335 320 312 299 310 323 335 353 352 354
22 24 25 28 28 22 16 12 11 7 19 20 18 47 0 4 4 358 10 10 9 4 3 7 357 351 343 357 1 356 343 342 8 347 324 323 320 327 318 328 338 348 356
5 4 13 12 19 16 7 3 360 4 9 21 48 45 37 16 9 1 3 3 7 8 1 357 355 353 351 347 342 349 358 329 331 3 342 320 295 313 302 304 339 351 340
354 2 7 359 4 0 360 6 6 9 11 15 46 46 48 349 324 334 341 351 6 7 2 358 358 357 352 352 349 2 338 341 335 321 320 279 268 288 304 306 327 331 323
320 339 342 340 354 4 6 7 12 12 12 16 18 37 35 343 338 360 356 357 8 10 7 2 2 1 358 357 358 358 357 351 332 321 312 306 311 270 273 293 307 312 294
345 346 353 358 4 9 13 12 17 12 12 20 23 19 12 356 3 5 356 353 357 357 4 1 0 355 355 352 343 341 340 328 315 307 326 320 293 289 278 282 297 298 292
6 352 354 359 2 7 7 7 17 9 11 17 22 16 7 0 2 355 353 350 347 348 353 355 352 351 350 347 343 341 339 322 316 297 298 298 292 297 285 283 295 296 294
2 348 355 359 355 2 7 8 10 4 5 9 8 10 8 358 358 4 354 345 334 333 343 353 353 353 351 348 341 337 334 336 313 323 318 312 313 319 307 299 300 304 298
330 322 341 3 -0 3 7 7 5 4 3 4 1 3 4 357 355 352 354 342 335 336 351 356 356 357 356 352 344 343 342 333 321 315 315 309 307 310 308 311 302 295 300
302 303 325 350 356 1 4 10 11 4 357 358 359 1 359 353 349 356 0 351 344 345 350 353 353 356 353 350 346 341 343 347 340 332 331 324 321 318 318 309 300 289 283
270 279 300 335 3 358 5 7 2 2 358 356 356 354 350 352 359 4 356 349 351 357 356 353 355 359 355 352 350 346 346 346 343 346 347 345 341 332 326 318 311 302 293
260 267 293 347 357 342 353 357 352 350 343 346 347 342 344 356 8 5 355 356 358 1 1 4 4 360 358 354 353 349 354 350 347 349 348 344 342 339 330 330 325 316 308
282 298 325 337 327 320 330 339 340 334 336 345 346 345 352 358 4 0 356 358 1 3 8 10 6 359 352 350 351 350 349 344 343 347 345 341 343 335 331 331 327 320 316
267 284 296 304 307 310 317 326 329 333 338 345 346 344 345 350 357 0 4 5 3 7 7 5 0 356 347 343 345 352 351 352 356 355 351 347 342 331 329 330 329 328 325
268 264 271 287 300 305 310 316 318 327 335 342 338 331 341 355 2 8 8 7 7 6 3 5 3 357 346 345 353 355 359 357 355 355 352 348 347 344 341 335 334 329 323
257 260 264 272 275 281 292 302 305 312 326 331 328 336 346 358 0 2 2 4 4 6 6 6 359 352 342 344 352 358 1 354 353 349 346 343 348 348 349 346 340 335 327
249 246 244 246 254 258 263 264 276 308 328 331 337 341 342 351 351 353 357 356 354 4 5 1 0 352 344 351 353 355 358 355 349 340 339 340 341 338 339 343 343 340 336
242 240 237 241 249 255 257 268 309 344 335 332 331 336 339 337 343 351 345 344 352 357 352 349 353 347 340 347 349 354 359 352 347 341 338 335 334 334 339 340 337 333 332
228 225 222 218 224 241 253 234 322 348 334 312 311 317 320 322 333 330 328 342 351 347 343 343 352 342 334 342 346 350 348 346 341 337 340 335 328 332 340 342 334 329 328
215 209 204 191 212 242 189 169 237 295 282 283 291 304 307 298 299 304 328 349 343 339 339 337 346 341 333 337 344 346 345 340 338 337 340 337 333 335 339 340 332 324 326
206 185 176 193 220 211 162 187 229 257 274 294 305 315 308 292 294 317 339 349 346 346 339 332 333 335 329 331 339 343 346 340 334 332 335 334 334 338 340 340 333 324 330
210 187 187 209 215 161 168 206 244 270 305 309 305 310 317 319 334 334 333 349 352 336 326 328 325 327 327 332 339 343 343 341 333 327 328 327 333 339 341 340 335 338 341
214 199 194 204 202 184 186 217 256 297 321 319 291 300 323 333 350 334 317 338 339 314 311 320 317 320 326 329 334 337 339 339 336 330 329 331 335 340 342 341 341 345 347
215 204 194 212 230 214 215 232 254 180 172 222 264 298 308 323 343 320 293 278 271 271 287 298 301 308 315 317 323 329 333 336 335 338 339 340 342 343 343 344 346 346 337
212 197 204 221 232 219 227 239 216 169 190 217 243 282 286 287 290 278 257 257 253 254 266 267 271 290 299 307 318 326 321 323 333 342 341 343 343 345 341 339 337 336 337
205 205 216 226 233 223 230 228 195 180 185 206 223 232 248 267 282 296 312 290 280 289 287 288 289 290 296 314 322 327 330 337 342 349 338 335 334 329 327 326 326 327 329